Weather History for Vagabond Aaf / Yakim, WA

Change the Weather History Date:

Sunday, December 22, 2013

  Actual Average (KYKM) Record (KYKM)
Temperature  
Mean Temperature 32 °F 27 °F  
Max Temperature 39 °F 34 °F 56 °F (1949)
Min Temperature 24 °F 21 °F -10 °F (1983)
Degree Days  
Heating Degree Days 34 38  
Month to date heating degree days 793  
Since 1 July heating degree days 2326  
Cooling Degree Days 0 0  
Month to date cooling degree days 0  
Year to date cooling degree days 472  
Moisture  
Dew Point 28 °F    
Average Humidity 88    
Maximum Humidity 100    
Minimum Humidity 69    
Precipitation  
Precipitation 0.00 in 0.05 in 1.07 in (1964)
Month to date precipitation 1.09  
Year to date precipitation 7.81  
Snow  
Snow 0.00 in 0.30 in 5.20 in (1968)
Month to date snowfall 6.6  
Year to date snowfall 18.8  
Since 1 July snowfall 10.2  
Snow Depth -    
Sea Level Pressure  
Sea Level Pressure 30.23 in    
Wind  
Wind Speed 3 mph (SW)    
Max Wind Speed 5 mph    
Max Gust Speed -    
Visibility 8 miles    
Events Rain    
T = Trace of Precipitation, MM = Missing Value Source: NWS Daily Summary

Daily Weather History Graph

Daily Weather History Graph

Search for Another Location

Airport:

Trip Planner

Search our weather history database for the weather conditions in past years. The results will help you decide how hot, cold, wet, or windy it might be!

Date:

Astronomy

Dec. 22, 2013 Rise Set
Actual Time 7:44 AM PST 4:17 PM PST
Civil Twilight 7:08 AM PST 4:52 PM PST
Nautical Twilight 6:30 AM PST 5:31 PM PST
Astronomical Twilight 5:53 AM PST 6:07 PM PST
Moon 9:52 PM PST (12/22) 10:26 AM PST (12/22)
Length of Visible Light 9h 43m
Length of Day
8h 33m
Waning Gibbous, 76% of the Moon is Illuminated
Dec 22
Waning Gibbous
Dec 25
Last Quarter
Jan 1
New
Jan 7
First Quarter
Jan 15
Full

Hourly Weather History & Observations

Time (PST) Temp. Windchill Dew Point Humidity Pressure Visibility Wind Dir Wind Speed Gust Speed Precip Events Conditions
12:56 AM 28.2 °F - 26.4 °F 93% 30.11 in 9.0 mi West 1.2 mph - N/A   Mostly Cloudy
1:56 AM 27.9 °F 22.6 °F 25.9 °F 92% 30.13 in 8.0 mi West 4.6 mph - N/A   Mostly Cloudy
2:56 AM 27.5 °F 22.2 °F 26.1 °F 94% 30.14 in 7.0 mi WSW 4.6 mph - N/A   Mostly Cloudy
3:56 AM 27.5 °F - 26.1 °F 94% 30.16 in 7.0 mi SSE 2.3 mph - N/A   Mostly Cloudy
4:56 AM 27.1 °F - 26.1 °F 96% 30.16 in 6.0 mi SW 2.3 mph - N/A   Mostly Cloudy
5:56 AM 27.1 °F 23.2 °F 25.9 °F 95% 30.17 in 7.0 mi SW 3.5 mph - N/A   Mostly Cloudy
6:56 AM 28.0 °F - 27.1 °F 96% 30.18 in 9.0 mi NE 2.3 mph - N/A   Mostly Cloudy
7:56 AM 25.5 °F 19.9 °F 24.3 °F 95% 30.20 in 3.0 mi WSW 4.6 mph - N/A   Scattered Clouds
8:01 AM 24.8 °F 20.5 °F 24.8 °F 100% 30.20 in 2.8 mi West 3.5 mph - N/A   Scattered Clouds
8:26 AM 26.6 °F - 26.6 °F 100% 30.21 in 3.0 mi SSW 2.3 mph - N/A   Mostly Cloudy
8:56 AM 28.8 °F - 27.9 °F 96% 30.21 in 4.0 mi SW 2.3 mph - N/A   Mostly Cloudy
9:56 AM 31.1 °F - 28.0 °F 88% 30.24 in 7.0 mi Variable 1.2 mph - N/A   Scattered Clouds
10:56 AM 34.3 °F - 29.5 °F 82% 30.24 in 10.0 mi Variable 1.2 mph - N/A   Mostly Cloudy
11:56 AM 36.5 °F - 29.3 °F 75% 30.24 in 10.0 mi NW 2.3 mph - N/A   Mostly Cloudy
12:56 PM 37.8 °F - 29.5 °F 72% 30.24 in 11.0 mi Variable 1.2 mph - N/A   Mostly Cloudy
1:56 PM 39.2 °F 37.0 °F 29.8 °F 69% 30.24 in 12.0 mi WNW 3.5 mph - N/A   Partly Cloudy
2:56 PM 37.2 °F 34.7 °F 29.5 °F 74% 30.25 in 10.0 mi WSW 3.5 mph - N/A   Mostly Cloudy
3:56 PM 35.8 °F 33.0 °F 29.3 °F 77% 30.26 in 10.0 mi NNE 3.5 mph - N/A   Mostly Cloudy
4:56 PM 32.7 °F - 27.1 °F 80% 30.27 in 10.0 mi East 2.3 mph - N/A   Mostly Cloudy
5:56 PM 31.8 °F 27.3 °F 28.0 °F 86% 30.28 in 9.0 mi ENE 4.6 mph - N/A   Mostly Cloudy
6:56 PM 32.2 °F - 28.0 °F 85% 30.28 in 10.0 mi Variable 1.2 mph - N/A   Mostly Cloudy
7:56 PM 31.8 °F 28.5 °F 28.2 °F 87% 30.27 in 9.0 mi ESE 3.5 mph - N/A   Mostly Cloudy
8:16 PM 32.0 °F - 28.4 °F 87% 30.27 in 9.0 mi NE 2.3 mph - N/A Rain Light Rain
8:51 PM 32.0 °F - 28.4 °F 87% 30.28 in 8.0 mi Variable 2.3 mph - N/A   Mostly Cloudy
8:56 PM 32.0 °F - 28.9 °F 88% 30.28 in 9.0 mi East 1.2 mph - N/A   Mostly Cloudy
9:56 PM 32.2 °F - 29.3 °F 89% 30.28 in 8.0 mi SE 2.3 mph - N/A   Mostly Cloudy
10:56 PM 32.5 °F - 29.3 °F 88% 30.26 in 8.0 mi East 2.3 mph - N/A   Mostly Cloudy
11:56 PM 31.6 °F - 28.9 °F 90% 30.26 in 7.0 mi North 2.3 mph - N/A   Mostly Cloudy